[[{"header":{"parameterUnit":"m.s-1","parameterCategory":1,"la1":30.2991,"la2":30.254,"lo1":-89.0895,"lo2":-89.0444,"dy":0.0017,"dx":0.0017,"nx":28,"ny":28,"refTime":"2024-02-01T03:00:00:Z","depth":0,"parameterNumber":2,"parameterNumberName":"U-component_of_WINDS"},"data":[0,0,0,0,0,0,0,0,0,0,0,0,0,0,0,0,0,0,0,0,0,0,0,0,0,0,0,0,0,0,0,0,0,0,0,0,0,0,0,0,0,0,0,0,0,0,0,0,0,0,0,0,0,0,0,0,0,0,-3.0141,-3.0141,0,-3.0156,-3.0156,-3.0156,-3.0033,-3.003,-3.0026,-3.0023,-3.004,-3.0044,-3.0047,0,0,0,0,0,0,0,0,0,0,0,0,0,-3.0008,-3.0011,-3.0141,-3.0141,-3.0141,-3.0156,-3.0156,-3.0156,-3.0034,-3.003,-3.0025,-3.0021,-3.0039,-3.0043,-3.0047,0,0,0,0,0,0,0,0,0,0,0,0,0,-3.0049,-3.0012,-3.0141,-3.0082,-3.0077,-3.0156,-3.0156,-3.0156,-3.0035,-3.0029,-3.0024,-3.002,-3.0037,-3.0043,-3.0048,-3.0185,0,0,-3.0065,-3.0067,0,0,0,0,0,0,0,0,-3.0047,-3.0054,-3.0091,-3.0086,-3.0081,-3.0087,-3.0115,-3.0166,-3.0036,-3.0051,-3.0023,-3.0017,-3.006,-3.0063,-3.0077,-3.0186,-3.0186,-3.0065,-3.0069,-3.0071,-3.0072,0,0,0,0,0,0,0,-3.0044,-3.0052,-3.0147,-3.0091,-3.0085,-3.0055,-3.0055,-3.0124,-3.0084,-3.0049,-3.004,-3.0044,-3.0056,-3.0072,-3.0077,-3.0187,-3.0065,-3.007,-3.0073,-3.0075,-3.0408,-3.0414,0,0,0,0,0,0,-3.0049,-3.0051,-3.0146,-3.0147,-3.0051,-3.0062,-3.0062,-3.009,-3.0083,-3.0077,-3.0048,-3.0038,-3.0066,-3.0071,-3.0077,-3.0237,-3.0071,-3.0076,-3.0079,-3.0403,-3.0409,-3.0415,0,0,0,0,0,0,-3.0046,-3.0059,-3.0146,-3.0097,-3.0106,-3.007,-3.0103,-3.0093,-3.0109,-3.0082,-3.0074,-3.0072,-3.0062,-3.0069,-3.0159,-3.0236,-3.0078,-3.0083,-3.0396,-3.0405,-3.0412,-3.0558,0,0,0,0,0,0,-3.0043,-3.0058,-3.011,-3.0099,-3.0109,-3.0228,-3.0107,-3.0097,-3.0119,-3.0106,-3.0102,-3.0097,-3.0058,-3.0151,-3.0164,-3.024,-3.0088,-3.0389,-3.04,-3.041,-3.0546,-3.057,-3.0591,0,0,0,0,0,-3.0039,-3.015,-3.0113,-3.0125,-3.0172,-3.0232,-3.0238,-3.0191,-3.0126,-3.0177,-3.016,-3.0097,-3.0225,-3.0162,-3.0175,-3.0254,-3.0384,-3.0397,-3.0409,-3.0536,-3.0566,-3.059,0,0,0,0,0,0,-3.0172,-3.0148,-3.0106,-3.0217,-3.0228,-3.0211,-3.0275,-3.0223,-3.0253,-3.0239,-3.018,-3.018,-3.028,-3.0276,-3.0205,-3.0386,-3.0293,-3.0309,-3.0385,-3.0413,-3.0435,-3.0434,-3.0092,0,0,0,0,0,-3.0214,-3.0264,-3.0241,-3.0341,-3.0349,-3.0311,-3.0336,-3.0298,-3.0307,-3.0311,-3.03,-3.0311,-3.0353,-3.0383,-3.0421,-3.0545,-3.0543,-3.0606,-3.0628,-3.0647,-3.0661,-3.0727,-3.0755,-3.0457,-3.0456,-3.0456,0,0,-3.0302,-3.0295,-3.033,-3.0368,-3.0371,-3.0426,-3.0316,-3.0377,-3.0417,-3.032,-3.0404,-3.0397,-3.0405,-3.0513,-3.056,-3.0513,-3.0743,-3.0663,-3.0678,-3.0682,-3.0743,-3.0771,-3.0796,-3.0465,-3.0463,-3.0462,0,0,-3.0489,-3.0489,-3.0573,-3.0579,-3.0585,-3.056,-3.058,-3.0572,-3.0563,-3.0646,-3.0575,-3.0621,-3.0696,-3.0705,-3.0719,-3.0911,-3.0855,-3.0925,-3.1042,-3.1107,-3.113,-3.1151,-3.122,-3.1245,-3.094,-3.094,-3.094,0,-3.0597,-3.0675,-3.0622,-3.0689,-3.0708,-3.0622,-3.0707,-3.0715,-3.0735,-3.075,-3.0697,-3.0789,-3.0789,-3.0897,-3.0944,-3.0959,-3.098,-3.0925,-3.1131,-3.1151,-3.117,-3.1234,-3.126,-3.0949,-3.0948,-3.0947,-3.0946,0,-3.0808,-3.0864,-3.0931,-3.0951,-3.0977,-3.1053,-3.1012,-3.1045,-3.1006,-3.0986,-3.1072,-3.1069,-3.1105,-3.1128,-3.109,-3.1232,-3.1202,-3.1141,-3.1047,-3.1208,-3.1267,-3.1292,-3.0961,-3.0958,-3.0955,-3.0953,0,0,-3.1079,-3.107,-3.1095,-3.1104,-3.1105,-3.1147,-3.1219,-3.1254,-3.1283,-3.13,-3.1359,-3.1424,-3.1368,-3.1385,-3.1347,-3.1404,-3.1557,-3.1336,-3.1335,-3.1377,-3.1713,-3.1759,-3.1788,-3.1519,-3.1524,-3.1527,-3.1712,0,-3.1262,-3.1384,-3.1339,-3.1464,-3.1514,-3.1434,-3.1497,-3.1505,-3.1489,-3.153,-3.1512,-3.156,-3.1481,-3.1491,-3.1544,-3.1527,-3.1623,-3.1513,-3.1574,-3.1577,-3.1575,-3.1819,-3.1868,-3.2042,-3.1735,-3.1739,-3.1742,0,-3.1492,-3.1517,-3.1647,-3.164,-3.166,-3.1717,-3.1745,-3.1785,-3.1793,-3.1777,-3.1797,-3.1747,-3.1818,-3.1724,-3.182,-3.1746,-3.1769,-3.1764,-3.177,-3.1774,-3.1669,-3.183,-3.2097,-3.2123,-3.1778,-3.1775,-3.1773,0,-3.1677,-3.1743,-3.183,-3.184,-3.1834,-3.1876,-3.1875,-3.1878,-3.1902,-3.1927,-3.1942,-3.1975,-3.1993,-3.202,-3.1981,-3.1916,-3.2084,-3.1987,-3.2073,-3.2075,-3.2112,-3.211,-3.2387,-3.2127,-3.2127,-3.2126,-3.2126,0,-3.1885,-3.1968,-3.1913,-3.1966,-3.2057,-3.2005,-3.2096,-3.2087,-3.209,-3.214,-3.2073,-3.2122,-3.2068,-3.2112,-3.2082,-3.2167,-3.2176,-3.2165,-3.2156,-3.2171,-3.2173,-3.2185,-3.2172,-3.2133,-3.2132,-3.213,-3.2129,0,-3.2107,-3.2073,-3.2162,-3.215,-3.2148,-3.2216,-3.2205,-3.2254,-3.2233,-3.2298,-3.231,-3.2278,-3.2326,-3.229,-3.2338,-3.2318,-3.243,-3.2404,-3.2427,-3.242,-3.2509,-3.2501,-3.2803,-3.284,-3.2557,-3.256,-3.2562,0,-3.2242,-3.2304,-3.2298,-3.2327,-3.2331,-3.2378,-3.2402,-3.2353,-3.2381,-3.2395,-3.2443,-3.2485,-3.2517,-3.2598,-3.2579,-3.2616,-3.259,-3.2693,-3.2595,-3.2608,-3.2592,-3.2588,-3.2594,-3.2713,-3.2716,-3.2719,-3.2721,0,-3.2486,-3.2467,-3.2503,-3.2535,-3.2566,-3.2588,-3.2606,-3.2633,-3.2584,-3.2618,-3.2667,-3.2691,-3.274,-3.2784,-3.2814,-3.2813,-3.276,-3.2752,-3.2774,-3.279,-3.2801,-3.2796,-3.2482,-3.2746,-3.2743,-3.2741,-3.274,-3.2739,-3.2669,-3.272,-3.2724,-3.2767,-3.2775,-3.2793,-3.2839,-3.2824,-3.2863,-3.2899,-3.2868,-3.2926,-3.2933,-3.2967,-3.2974,-3.3019,-3.2977,-3.3009,-3.3017,-3.3026,-3.3038,-3.2794,-3.3025,-3.3024,-3.3023,-3.3023,-3.3022,0,-3.2909,-3.2907,-3.2948,-3.2974,-3.3009,-3.2955,-3.2972,-3.3004,-3.3057,-3.3067,-3.31,-3.3156,-3.3198,-3.3183,-3.322,-3.3259,-3.3235,-3.327,-3.3267,-3.3268,-3.3074,-3.3051,-3.3289,-3.3289,-3.3289,-3.3289,-3.3289,-3.3289,-3.3038,-3.3122,-3.3103,-3.3191,-3.3189,-3.3245,-3.3259,-3.3276,-3.3284,-3.335,-3.3384,-3.3374,-3.3374,-3.3411,-3.3447,-3.3442,-3.3458,-3.3503,-3.3488,-3.3308,-3.3281,-3.3256,-3.3234,-3.3507,-3.3507,-3.3678,-3.368,-3.3681]},{"header":{"parameterUnit":"m.s-1","parameterCategory":1,"la1":30.2991,"la2":30.254,"lo1":-89.0895,"lo2":-89.0444,"dy":0.0017,"dx":0.0017,"nx":28,"ny":28,"refTime":"2024-02-01T03:00:00:Z","depth":0,"parameterNumber":3,"parameterNumberName":"V-component_of_WINDS"},"data":[0,0,0,0,0,0,0,0,0,0,0,0,0,0,0,0,0,0,0,0,0,0,0,0,0,0,0,0,0,0,0,0,0,0,0,0,0,0,0,0,0,0,0,0,0,0,0,0,0,0,0,0,0,0,0,0,0,0,-1.6445,-1.6445,0,-1.6455,-1.6455,-1.6455,-1.6453,-1.6453,-1.6453,-1.6452,-1.6461,-1.6462,-1.6462,0,0,0,0,0,0,0,0,0,0,0,0,0,-1.6421,-1.6421,-1.6445,-1.6445,-1.6445,-1.6455,-1.6455,-1.6455,-1.6453,-1.6453,-1.6453,-1.6452,-1.6461,-1.6462,-1.6462,0,0,0,0,0,0,0,0,0,0,0,0,0,-1.6431,-1.6422,-1.6445,-1.6445,-1.6445,-1.6455,-1.6455,-1.6455,-1.6453,-1.6453,-1.6453,-1.6452,-1.6461,-1.6462,-1.6462,-1.6472,0,0,-1.6464,-1.6464,0,0,0,0,0,0,0,0,-1.6431,-1.6432,-1.6445,-1.6445,-1.6446,-1.6453,-1.645,-1.6461,-1.6453,-1.645,-1.6452,-1.6452,-1.6459,-1.6459,-1.6462,-1.6472,-1.6472,-1.6464,-1.6465,-1.6465,-1.6465,0,0,0,0,0,0,0,-1.643,-1.6432,-1.6449,-1.6445,-1.6446,-1.6444,-1.6445,-1.6452,-1.6456,-1.645,-1.645,-1.6452,-1.6459,-1.6461,-1.6462,-1.6473,-1.6464,-1.6465,-1.6465,-1.6465,-1.6489,-1.649,0,0,0,0,0,0,-1.6429,-1.6431,-1.6449,-1.6449,-1.6437,-1.6445,-1.6446,-1.6451,-1.6456,-1.6456,-1.6452,-1.6451,-1.646,-1.6461,-1.6462,-1.6473,-1.6465,-1.6465,-1.6466,-1.6489,-1.6489,-1.649,0,0,0,0,0,0,-1.6429,-1.6431,-1.6448,-1.644,-1.6442,-1.6446,-1.6451,-1.6451,-1.6454,-1.6457,-1.6457,-1.6454,-1.646,-1.6461,-1.6469,-1.6473,-1.6466,-1.6466,-1.6489,-1.6489,-1.6489,-1.6494,0,0,0,0,0,0,-1.6428,-1.6431,-1.6435,-1.644,-1.6443,-1.6456,-1.6451,-1.6451,-1.6455,-1.6454,-1.6459,-1.6459,-1.646,-1.6468,-1.647,-1.6474,-1.6467,-1.6488,-1.6489,-1.6489,-1.6494,-1.6495,-1.6496,0,0,0,0,0,-1.6427,-1.6436,-1.6436,-1.6438,-1.6448,-1.6456,-1.6457,-1.6458,-1.6455,-1.6459,-1.6461,-1.6459,-1.6472,-1.6469,-1.6471,-1.6475,-1.6488,-1.6489,-1.6489,-1.6493,-1.6494,-1.6496,0,0,0,0,0,0,-1.6432,-1.6437,-1.6436,-1.6447,-1.6451,-1.6456,-1.6461,-1.646,-1.6464,-1.6464,-1.6464,-1.6465,-1.6473,-1.6475,-1.6471,-1.6483,-1.648,-1.6481,-1.6482,-1.6483,-1.6484,-1.6483,-1.6467,0,0,0,0,0,-1.6434,-1.644,-1.6444,-1.6453,-1.6456,-1.6458,-1.6461,-1.6461,-1.6465,-1.6467,-1.6469,-1.6473,-1.6477,-1.648,-1.6485,-1.6494,-1.6494,-1.6497,-1.6498,-1.6499,-1.65,-1.6503,-1.6504,-1.6492,-1.6492,-1.6492,0,0,-1.6438,-1.6442,-1.6446,-1.6454,-1.6458,-1.6463,-1.6459,-1.6466,-1.647,-1.6468,-1.6475,-1.6477,-1.648,-1.6488,-1.6492,-1.649,-1.6503,-1.65,-1.65,-1.6501,-1.6504,-1.6505,-1.6506,-1.6492,-1.6492,-1.6492,0,0,-1.645,-1.6454,-1.6461,-1.6464,-1.6469,-1.647,-1.6471,-1.6476,-1.6477,-1.6484,-1.6482,-1.6486,-1.6495,-1.6497,-1.6499,-1.6509,-1.6508,-1.6511,-1.6516,-1.6519,-1.652,-1.6521,-1.6524,-1.6525,-1.6512,-1.6512,-1.6512,0,-1.6455,-1.6464,-1.6465,-1.6471,-1.6474,-1.6472,-1.6479,-1.6482,-1.6488,-1.6489,-1.6487,-1.6497,-1.6499,-1.6507,-1.6509,-1.6511,-1.6512,-1.651,-1.652,-1.6521,-1.6522,-1.6524,-1.6525,-1.6512,-1.6512,-1.6512,-1.6512,0,-1.6469,-1.6475,-1.6481,-1.6486,-1.649,-1.6496,-1.6497,-1.65,-1.65,-1.6501,-1.6507,-1.651,-1.6514,-1.6516,-1.6516,-1.6523,-1.6522,-1.652,-1.6516,-1.6523,-1.6525,-1.6526,-1.6512,-1.6512,-1.6512,-1.6512,0,0,-1.6484,-1.6489,-1.6491,-1.6493,-1.6497,-1.6501,-1.6507,-1.6511,-1.6514,-1.6517,-1.6521,-1.6528,-1.6525,-1.6528,-1.6528,-1.6531,-1.6537,-1.6528,-1.6528,-1.6529,-1.6544,-1.6545,-1.6547,-1.6536,-1.6536,-1.6536,-1.6544,0,-1.6495,-1.6506,-1.6506,-1.6515,-1.652,-1.6518,-1.6522,-1.6525,-1.6526,-1.6529,-1.653,-1.6534,-1.6531,-1.6532,-1.6535,-1.6536,-1.654,-1.6535,-1.6539,-1.6539,-1.6538,-1.6548,-1.655,-1.6557,-1.6545,-1.6545,-1.6545,0,-1.651,-1.6513,-1.6523,-1.6525,-1.6527,-1.6532,-1.6535,-1.6539,-1.6541,-1.6541,-1.6543,-1.6542,-1.6546,-1.6542,-1.6548,-1.6545,-1.6546,-1.6546,-1.6546,-1.6547,-1.6542,-1.6548,-1.6559,-1.656,-1.6546,-1.6546,-1.6546,0,-1.6518,-1.6526,-1.6532,-1.6534,-1.6537,-1.654,-1.6541,-1.6543,-1.6545,-1.6548,-1.6549,-1.6552,-1.6553,-1.6555,-1.6554,-1.6552,-1.656,-1.6556,-1.6559,-1.6559,-1.6561,-1.6561,-1.6572,-1.6563,-1.6563,-1.6563,-1.6563,0,-1.653,-1.6536,-1.6536,-1.654,-1.6546,-1.6545,-1.6551,-1.6552,-1.6553,-1.6556,-1.6555,-1.6557,-1.6557,-1.6559,-1.6559,-1.6563,-1.6563,-1.6563,-1.6563,-1.6563,-1.6563,-1.6564,-1.6563,-1.6563,-1.6563,-1.6563,-1.6563,0,-1.6541,-1.6541,-1.6548,-1.655,-1.655,-1.6554,-1.6556,-1.6559,-1.6559,-1.6563,-1.6564,-1.6564,-1.6567,-1.6566,-1.6569,-1.6569,-1.6574,-1.6573,-1.6573,-1.6573,-1.6576,-1.6575,-1.6587,-1.6588,-1.6579,-1.6579,-1.6579,0,-1.6548,-1.6553,-1.6555,-1.6557,-1.6558,-1.6562,-1.6564,-1.6563,-1.6565,-1.6567,-1.6569,-1.6572,-1.6574,-1.6579,-1.6578,-1.658,-1.6579,-1.6583,-1.658,-1.6579,-1.6579,-1.6578,-1.6578,-1.6584,-1.6584,-1.6584,-1.6584,0,-1.6561,-1.6561,-1.6564,-1.6567,-1.6569,-1.6571,-1.6573,-1.6575,-1.6574,-1.6576,-1.6579,-1.658,-1.6583,-1.6586,-1.6587,-1.6588,-1.6586,-1.6586,-1.6586,-1.6587,-1.6586,-1.6586,-1.6574,-1.6585,-1.6585,-1.6585,-1.6585,-1.6585,-1.657,-1.6573,-1.6575,-1.6578,-1.6579,-1.658,-1.6583,-1.6583,-1.6586,-1.6588,-1.6587,-1.659,-1.6591,-1.6593,-1.6593,-1.6595,-1.6593,-1.6595,-1.6595,-1.6595,-1.6595,-1.6586,-1.6595,-1.6595,-1.6595,-1.6595,-1.6595,0,-1.6582,-1.6582,-1.6585,-1.6588,-1.659,-1.6588,-1.6589,-1.6591,-1.6594,-1.6595,-1.6597,-1.6599,-1.6601,-1.6601,-1.6602,-1.6603,-1.6602,-1.6604,-1.6603,-1.6603,-1.6597,-1.6596,-1.6604,-1.6604,-1.6604,-1.6604,-1.6604,-1.6604,-1.6588,-1.6593,-1.6592,-1.6597,-1.6598,-1.6601,-1.6602,-1.6603,-1.6603,-1.6606,-1.6608,-1.6607,-1.6608,-1.6609,-1.661,-1.661,-1.661,-1.6612,-1.6611,-1.6605,-1.6604,-1.6603,-1.6602,-1.6612,-1.6612,-1.6617,-1.6617,-1.6617]}]]